FW9926 Weather Reports


time (UTC)temp
C
wind
direction
speed
KPH
gust
KPH
rain 1hr
cm
rain 24hr
cm
rain mn
cm
humidity
%
barometer
mb
20260507153059 17 0 0.0 0.0 0.00 0.00 0.00 36 1023.3
20260507151551 17 0 0.0 0.0 0.00 0.00 0.00 38 1023.2
20260507150055 16 0 0.0 0.0 0.00 0.00 0.00 37 1023.2
20260507144551 16 0 0.0 0.0 0.00 0.00 0.00 40 1023.1
20260507143049 15 0 0.0 0.0 0.00 0.00 0.00 40 1023.1
20260507141602 15 0 0.0 0.0 0.00 0.00 0.00 40 1022.9
20260507140053 15 0 0.0 0.0 0.00 0.00 0.00 40 1022.7
20260507134554 15 0 0.0 6.4 0.00 0.00 0.00 41 1022.6
20260507133101 14 360 3.2 8.0 0.00 0.00 0.00 41 1022.7
20260507131550 14 15 3.2 8.0 0.00 0.00 0.00 43 1022.7
20260507130055 13 26 3.2 6.4 0.00 0.00 0.00 45 1022.7
20260507124553 13 22 0.0 3.2 0.00 0.00 0.00 45 1022.6
20260507123050 14 0 0.0 6.4 0.00 0.00 0.00 44 1022.5
20260507121552 14 340 3.2 6.4 0.00 0.00 0.00 43 1022.4
20260507120104 14 346 3.2 8.0 0.00 0.00 0.00 44 1022.5
20260507114558 13 355 3.2 11.3 0.00 0.00 0.00 43 1022.4
20260507113056 13 11 3.2 8.0 0.00 0.00 0.00 47 1022.4
20260507111557 13 350 4.8 8.0 0.00 0.00 0.00 48 1022.4
20260507104605 12 326 4.8 8.0 0.00 0.00 0.00 54 1022.4
20260507103049 12 0 1.6 9.7 0.00 0.00 0.00 59 1022.4
20260507101545 13 337 4.8 11.3 0.00 0.00 0.00 56 1022.3
20260507100047 13 360 4.8 9.7 0.00 0.00 0.00 57 1022.3
20260507094555 12 0 0.0 0.0 0.00 0.00 0.00 61 1022.3
20260507093049 12 0 0.0 0.0 0.00 0.00 0.00 61 1022.3
20260507091552 12 0 0.0 0.0 0.00 0.00 0.00 59 1022.4
20260507090054 12 0 0.0 0.0 0.00 0.00 0.00 55 1022.4
20260507084548 12 0 0.0 0.0 0.00 0.00 0.00 55 1022.6
20260507083048 12 0 0.0 0.0 0.00 0.00 0.00 56 1022.7
20260507081550 12 0 0.0 0.0 0.00 0.00 0.00 54 1022.7
20260507080059 12 0 0.0 0.0 0.00 0.00 0.00 59 1022.7
20260507074554 12 0 0.0 0.0 0.00 0.00 0.00 58 1022.8
20260507073149 12 0 0.0 0.0 0.00 0.00 0.00 58 1022.8
20260507071549 12 0 0.0 0.0 0.00 0.00 0.00 58 1023.1
20260507070055 11 0 0.0 0.0 0.00 0.00 0.00 60 1023.1
20260507064608 11 0 0.0 0.0 0.00 0.00 0.00 60 1023.3
20260507063117 11 0 0.0 0.0 0.00 0.00 0.00 63 1023.3
20260507061552 11 0 0.0 0.0 0.00 0.00 0.00 66 1023.2
20260507060052 11 0 0.0 0.0 0.00 0.00 0.00 67 1023.1
20260507054556 11 0 0.0 0.0 0.00 0.00 0.00 64 1023.0
20260507053050 11 0 0.0 0.0 0.00 0.00 0.00 67 1023.1
20260507051556 11 0 0.0 0.0 0.00 0.00 0.00 69 1023.1
20260507050057 10 0 0.0 0.0 0.00 0.00 0.00 72 1023.1
20260507044551 10 0 0.0 0.0 0.00 0.00 0.00 78 1023.0
20260507043054 10 0 0.0 0.0 0.00 0.00 0.00 80 1023.1
20260507041553 10 0 0.0 0.0 0.00 0.00 0.00 79 1023.0
20260507040108 10 0 0.0 0.0 0.00 0.00 0.00 80 1022.9
20260507034618 10 0 0.0 0.0 0.00 0.00 0.00 81 1022.7
20260507033105 10 0 0.0 0.0 0.00 0.00 0.00 81 1022.6
20260507031603 11 0 0.0 3.2 0.00 0.00 0.00 80 1022.5
20260507030054 11 360 3.2 6.4 0.00 0.00 0.00 79 1022.4
20260507024604 11 5 3.2 6.4 0.00 0.00 0.00 77 1022.2
20260507023058 11 0 1.6 6.4 0.00 0.00 0.00 75 1022.0
20260507021601 12 355 3.2 6.4 0.00 0.00 0.00 73 1022.1
20260507020048 12 338 3.2 8.0 0.00 0.00 0.00 72 1021.8
20260507014556 12 11 3.2 8.0 0.00 0.00 0.00 69 1021.8
20260507013103 13 336 3.2 11.3 0.00 0.00 0.00 66 1021.8
20260507011552 13 322 3.2 9.7 0.00 0.00 0.00 63 1021.8
20260507010055 14 286 1.6 9.7 0.00 0.00 0.00 63 1021.7
20260507004553 15 5 1.6 11.3 0.00 0.00 0.00 61 1021.7
20260507003048 15 337 4.8 16.1 0.00 0.00 0.00 60 1021.7
20260507001608 15 5 4.8 12.9 0.00 0.00 0.00 61 1021.5
20260507000051 15 336 3.2 8.0 0.00 0.00 0.00 61 1021.4
20260506234559 16 284 3.2 9.7 0.00 0.00 0.00 62 1021.2
20260506233047 16 22 3.2 11.3 0.00 0.00 0.00 61 1021.3
20260506231555 16 0 1.6 14.5 0.00 0.00 0.00 56 1021.3
20260506230053 16 5 3.2 16.1 0.00 0.00 0.00 57 1021.2
20260506224604 16 16 3.2 12.9 0.00 0.00 0.00 57 1021.3
20260506223057 16 325 3.2 9.7 0.00 0.00 0.00 55 1021.4
20260506221552 16 0 0.0 12.9 0.00 0.00 0.00 57 1021.5
20260506220107 15 355 1.6 16.1 0.00 0.00 0.00 55 1021.7
20260506214551 15 13 6.4 14.5 0.00 0.00 0.00 56 1021.6
20260506213053 16 21 4.8 16.1 0.00 0.00 0.00 56 1021.7
20260506211556 16 352 8.0 16.1 0.00 0.00 0.00 57 1021.6
20260506210050 15 5 3.2 14.5 0.00 0.00 0.00 57 1021.6
20260506204556 15 360 3.2 12.9 0.00 0.00 0.00 61 1021.7
20260506203101 15 0 4.8 14.5 0.00 0.00 0.00 57 1021.8
20260506201556 15 10 3.2 11.3 0.00 0.00 0.00 59 1021.9
20260506200053 15 5 3.2 14.5 0.00 0.00 0.00 60 1022.0
20260506194554 15 330 4.8 9.7 0.00 0.03 0.00 57 1022.2
20260506193059 15 351 1.6 8.0 0.00 0.03 0.00 61 1022.2
20260506191552 14 5 3.2 9.7 0.00 0.03 0.00 58 1022.3
20260506190052 13 0 3.2 9.7 0.00 0.03 0.00 63 1022.3
20260506184550 14 13 3.2 14.5 0.00 0.03 0.00 61 1022.2
20260506183058 13 0 3.2 9.7 0.00 0.03 0.00 67 1022.2
20260506181600 13 348 4.8 9.7 0.00 0.03 0.00 65 1022.3
20260506180054 12 346 4.8 9.7 0.00 0.03 0.00 64 1022.1
20260506174553 12 319 4.8 9.7 0.00 0.03 0.00 60 1022.0
20260506173121 12 355 3.2 12.9 0.00 0.03 0.00 62 1021.8
20260506171555 11 5 3.2 8.0 0.00 0.03 0.00 62 1021.8
20260506170057 11 360 3.2 8.0 0.00 0.03 0.00 65 1021.6
20260506164550 10 333 3.2 12.9 0.00 0.03 0.00 66 1021.5
20260506163055 10 327 3.2 11.3 0.00 0.03 0.00 69 1021.3
20260506161552 9 313 3.2 8.0 0.00 0.03 0.00 71 1021.3
20260506160108 8 315 3.2 6.4 0.00 0.03 0.00 74 1020.9
20260506154554 8 5 4.8 8.0 0.00 0.08 0.00 73 1020.7